Weather in Yarega

Russia / Komi Republic     63°26′04″N   53°34′39″E
temp.,
°C
wind,
m/s
gust,
m/s
humid.,
%
clouds,
%
prec.,
mm/h
press.,
hPa
HPBL,
m
2 march, tue
tue200:00−5s4996100 1.8 992492
03:00−6s3896100 3.3 990435
06:00−6sse3696100 1.3 987268
09:00−6sse2495100 1.6 987272
12:00−5ese2394100 0.1 987313
15:00−5ese1295100 0.3 988216
18:00−7se1297100 0.7 98860
21:00−8s1197100 1.1 98921
3 march, wed
wed300:00−7nw139799 0.3 99082
03:00−7wnw369699 0.6 991222
06:00−12w259788 0.1 990113
09:00−8wsw379591 0.1 990277
12:00−4w479196 0.3 990684
15:00−5w489198 0.6 990766
18:00−7wsw3895100 0.2 989324
21:00−9wsw2396100 0.4 99083
4 march, thu
thu400:00−12wnw249699 0.1 989141
03:00−14w2296100 0.1 98959
06:00−15w1296100 0.1 98933
09:00−13wsw139396 0.1 989229
12:00−11wsw2387100 0.0 989562
15:00−11w1289100 0.1 990391
18:00−17nw129575 0.0 99120
21:00−19nw119766 0.0 99220
5 march, fri
fri500:00−20nnw119918 0.0 99320
03:00−20n2210039 0.0 99420
06:00−19n259999 0.1 996114
09:00−17n259699 0.1 997251
12:00−16nnw2493100 0.1 999328
15:00−15nnw2493100 0.1 1000372
18:00−18nnw239896 0.1 100280
21:00−20nnw229895 0.1 100354
6 march, sat
sat600:00−21nw129892 0.1 100424
03:00−21nw129996 0.2 100421
06:00−21nw1299100 0.1 100520
09:00−19wnw1293100 0.1 1006279
12:00−17w2385100 0.1 1006743
15:00−17wsw3488100 0.1 1006637
18:00−20wsw239796 0.1 100688
21:00−24w129884 0.1 100620